Location: Katowice
(50.2611°N, 19.0242°E)
Time: 22:15:58
(UTC+02:00)

Tiros 1 - Pass Details

Date: 27 August 2019
Orbit: 630 x 664 km, 48.4° (Epoch: 13 October)

Event Time Altitude Azimuth Distance (km) Brightness Sun altitude
Exits shadow 05:11:59 - 272° (W) 2,422 9.5 -6.5°
Reaches altitude 10° 05:13:20 10° 262° (W) 2,026 9.1 -6.3°
Maximum altitude 05:16:34 19° 218° (SW) 1,535 8.6 -5.9°
Drops below altitude 10° 05:19:48 10° 174° (S) 2,033 9.5 -5.4°
Sets 05:22:43 0° 156° (SSE) 2,947 10.6 -5.0°
